TimeMST,TemperatureF,Dew PointF,Humidity,Sea Level PressureIn,VisibilityMPH,Wind Direction,Wind SpeedMPH,Gust SpeedMPH,PrecipitationIn,Events,Conditions,WindDirDegrees,DateUTC
12:55 AM,21.9,12.0,66,30.39,10.0,Calm,Calm,-,N/A,,Clear,0,2013-02-28 07:55:00
1:55 AM,19.0,12.0,74,30.38,10.0,NW,4.6,-,N/A,,Clear,320,2013-02-28 08:55:00
2:55 AM,19.0,10.9,71,30.38,10.0,Calm,Calm,-,N/A,,Partly Cloudy,0,2013-02-28 09:55:00
3:55 AM,21.0,12.9,71,30.38,10.0,South,3.5,-,N/A,,Overcast,170,2013-02-28 10:55:00
4:55 AM,19.9,12.9,74,30.35,10.0,NNE,5.8,-,N/A,,Overcast,20,2013-02-28 11:55:00
5:55 AM,21.0,14.0,74,30.38,10.0,Calm,Calm,-,N/A,,Overcast,0,2013-02-28 12:55:00
6:55 AM,21.0,15.1,78,30.39,10.0,Calm,Calm,-,N/A,,Overcast,0,2013-02-28 13:55:00
7:55 AM,21.9,15.1,75,30.41,10.0,Calm,Calm,-,N/A,,Overcast,0,2013-02-28 14:55:00
8:55 AM,24.1,15.1,69,30.41,10.0,Calm,Calm,-,N/A,,Overcast,0,2013-02-28 15:55:00
9:55 AM,28.0,15.1,58,30.41,10.0,Calm,Calm,-,N/A,,Overcast,0,2013-02-28 16:55:00
10:55 AM,30.9,15.1,52,30.40,10.0,Calm,Calm,-,N/A,,Overcast,0,2013-02-28 17:55:00
11:55 AM,34.0,17.1,50,30.39,10.0,Calm,Calm,-,N/A,,Overcast,0,2013-02-28 18:55:00
12:55 PM,35.1,18.0,50,30.38,10.0,North,5.8,-,N/A,,Overcast,10,2013-02-28 19:55:00
2:55 PM,35.1,25.0,67,30.40,10.0,Calm,Calm,-,0.00,,Overcast,0,2013-02-28 21:55:00
3:27 PM,35.6,26.6,70,30.30,1.8,NE,3.5,-,0.00,Snow,Light Snow,40,2013-02-28 22:27:00
3:37 PM,33.8,26.6,75,30.30,2.5,Calm,Calm,-,0.00,Snow,Light Snow,0,2013-02-28 22:37:00
3:44 PM,33.8,26.6,75,30.30,4.0,Calm,Calm,-,0.00,Snow,Light Snow,0,2013-02-28 22:44:00
3:55 PM,34.0,27.0,75,30.39,4.0,Calm,Calm,-,0.00,Snow,Light Snow,0,2013-02-28 22:55:00
4:25 PM,33.8,28.4,81,30.31,1.8,NNW,3.5,-,0.00,Snow,Light Snow,330,2013-02-28 23:25:00
4:31 PM,33.8,28.4,81,30.31,2.0,Calm,Calm,-,0.01,Snow,Light Snow,0,2013-02-28 23:31:00
4:41 PM,33.8,28.4,81,30.31,5.0,North,3.5,-,0.01,Snow,Light Snow,360,2013-02-28 23:41:00
4:53 PM,33.8,28.4,81,30.31,1.8,North,3.5,-,0.01,Snow,Light Snow,360,2013-02-28 23:53:00
5:10 PM,33.8,28.4,81,30.31,2.5,Calm,Calm,-,0.00,Snow,Light Snow,0,2013-03-01 00:10:00
5:18 PM,33.8,28.4,81,30.31,1.8,North,3.5,-,0.00,Snow,Light Snow,350,2013-03-01 00:18:00
5:39 PM,33.8,28.4,81,30.32,2.5,Calm,Calm,-,0.00,Snow,Light Snow,0,2013-03-01 00:39:00
5:50 PM,33.8,28.4,81,30.33,3.0,Calm,Calm,-,0.00,Snow,Light Snow,0,2013-03-01 00:50:00
5:55 PM,33.1,28.9,85,30.43,3.0,Calm,Calm,-,0.01,Snow,Light Snow,0,2013-03-01 00:55:00
6:04 PM,33.8,28.4,81,30.33,2.5,Calm,Calm,-,0.00,Snow,Light Snow,0,2013-03-01 01:04:00
6:34 PM,33.8,28.4,81,30.34,3.0,Calm,Calm,-,0.00,Snow,Light Snow,0,2013-03-01 01:34:00
6:50 PM,32.0,28.4,87,30.35,3.0,Calm,Calm,-,0.00,Snow,Light Snow,0,2013-03-01 01:50:00
6:55 PM,32.0,28.9,88,30.45,3.0,Calm,Calm,-,0.00,Snow,Light Snow,0,2013-03-01 01:55:00
7:15 PM,32.0,30.2,93,30.35,2.5,Calm,Calm,-,0.01,Snow,Light Snow,0,2013-03-01 02:15:00
7:28 PM,32.0,28.4,87,30.36,2.5,Calm,Calm,-,0.01,Snow,Light Snow,0,2013-03-01 02:28:00
7:55 PM,32.0,28.9,88,30.46,7.0,Calm,Calm,-,0.01,,Overcast,0,2013-03-01 02:55:00
8:27 PM,32.0,30.2,93,30.37,1.8,Calm,Calm,-,0.00,Snow,Light Snow,0,2013-03-01 03:27:00
8:40 PM,30.2,28.4,93,30.37,3.0,NNW,3.5,-,0.00,,Overcast,330,2013-03-01 03:40:00
9:39 PM,30.2,28.4,93,30.39,10.0,North,3.5,-,N/A,,Overcast,350,2013-03-01 04:39:00
9:55 PM,30.9,28.0,89,30.47,10.0,NNW,3.5,-,N/A,,Overcast,340,2013-03-01 04:55:00
10:09 PM,30.2,28.4,93,30.39,10.0,Calm,Calm,-,N/A,,Overcast,0,2013-03-01 05:09:00
10:34 PM,30.2,28.4,93,30.40,10.0,Calm,Calm,-,N/A,,Overcast,0,2013-03-01 05:34:00
10:55 PM,30.9,27.0,85,30.46,10.0,Calm,Calm,-,N/A,,Overcast,0,2013-03-01 05:55:00
11:55 PM,30.0,27.0,88,30.46,10.0,Calm,Calm,-,N/A,,Overcast,0,2013-03-01 06:55:00